#datetime,building,power
2022-07-17T00:00:00,75s,1.12
2022-07-17T00:01:00,75s,1.12
2022-07-17T00:02:00,75s,1.13
2022-07-17T00:03:00,75s,1.15
2022-07-17T00:04:00,75s,1.26
2022-07-17T00:05:00,75s,10.42
2022-07-17T00:06:00,75s,10.40
2022-07-17T00:07:00,75s,10.28
2022-07-17T00:08:00,75s,10.91
2022-07-17T00:09:00,75s,10.23
2022-07-17T00:10:00,75s,1.22
2022-07-17T00:11:00,75s,1.23
2022-07-17T00:12:00,75s,1.22
2022-07-17T00:13:00,75s,1.32
2022-07-17T00:14:00,75s,1.32
2022-07-17T00:15:00,75s,1.36
2022-07-17T00:16:00,75s,2.16
2022-07-17T00:17:00,75s,1.36
2022-07-17T00:18:00,75s,1.34
2022-07-17T00:19:00,75s,1.44
2022-07-17T00:20:00,75s,1.41
2022-07-17T00:21:00,75s,1.40
2022-07-17T00:22:00,75s,1.43
2022-07-17T00:23:00,75s,1.39
2022-07-17T00:24:00,75s,1.39
2022-07-17T00:25:00,75s,1.34
2022-07-17T00:26:00,75s,1.44
2022-07-17T00:27:00,75s,1.50
2022-07-17T00:28:00,75s,1.66
2022-07-17T00:29:00,75s,1.47
2022-07-17T00:30:00,75s,1.42
2022-07-17T00:31:00,75s,1.42
2022-07-17T00:32:00,75s,1.35
2022-07-17T00:33:00,75s,1.42
2022-07-17T00:34:00,75s,1.42
2022-07-17T00:35:00,75s,1.34
2022-07-17T00:36:00,75s,1.44
2022-07-17T00:37:00,75s,1.43
2022-07-17T00:38:00,75s,1.44
2022-07-17T00:39:00,75s,1.42
2022-07-17T00:40:00,75s,1.36
2022-07-17T00:41:00,75s,1.27
2022-07-17T00:42:00,75s,1.28
2022-07-17T00:43:00,75s,1.34
2022-07-17T00:44:00,75s,1.33
2022-07-17T00:45:00,75s,1.39
2022-07-17T00:46:00,75s,1.41
2022-07-17T00:47:00,75s,1.33
2022-07-17T00:48:00,75s,1.32
2022-07-17T00:49:00,75s,1.26
2022-07-17T00:50:00,75s,1.26
2022-07-17T00:51:00,75s,1.27
2022-07-17T00:52:00,75s,1.27
2022-07-17T00:53:00,75s,1.24
2022-07-17T00:54:00,75s,1.24
2022-07-17T00:55:00,75s,1.72
2022-07-17T00:56:00,75s,1.59
2022-07-17T00:57:00,75s,1.56
2022-07-17T00:58:00,75s,1.94
2022-07-17T00:59:00,75s,1.63
2022-07-17T01:00:00,75s,1.29
2022-07-17T01:01:00,75s,1.29
2022-07-17T01:02:00,75s,1.31
2022-07-17T01:03:00,75s,1.30
2022-07-17T01:04:00,75s,1.30
2022-07-17T01:05:00,75s,1.38
2022-07-17T01:06:00,75s,1.48
2022-07-17T01:07:00,75s,1.57
2022-07-17T01:08:00,75s,1.63
2022-07-17T01:09:00,75s,1.51
2022-07-17T01:10:00,75s,1.44
2022-07-17T01:11:00,75s,1.40
2022-07-17T01:12:00,75s,1.35
2022-07-17T01:13:00,75s,1.30
2022-07-17T01:14:00,75s,1.30
2022-07-17T01:15:00,75s,1.31
2022-07-17T01:16:00,75s,1.76
2022-07-17T01:17:00,75s,1.40
2022-07-17T01:18:00,75s,1.39
2022-07-17T01:19:00,75s,1.46
2022-07-17T01:20:00,75s,1.48
2022-07-17T01:21:00,75s,1.46
2022-07-17T01:22:00,75s,1.31
2022-07-17T01:23:00,75s,1.30
2022-07-17T01:24:00,75s,1.29
2022-07-17T01:25:00,75s,1.42
2022-07-17T01:26:00,75s,1.52
2022-07-17T01:27:00,75s,1.36
2022-07-17T01:28:00,75s,1.32
2022-07-17T01:29:00,75s,1.23
2022-07-17T01:30:00,75s,1.29
2022-07-17T01:31:00,75s,1.37
2022-07-17T01:32:00,75s,1.37
2022-07-17T01:33:00,75s,1.28
2022-07-17T01:34:00,75s,1.16
2022-07-17T01:35:00,75s,1.16
2022-07-17T01:36:00,75s,1.26
2022-07-17T01:37:00,75s,1.25
2022-07-17T01:38:00,75s,1.31
2022-07-17T01:39:00,75s,1.17
2022-07-17T01:40:00,75s,1.16
2022-07-17T01:41:00,75s,1.16
2022-07-17T01:42:00,75s,1.25
2022-07-17T01:43:00,75s,1.39
2022-07-17T01:44:00,75s,1.37
2022-07-17T01:45:00,75s,1.30
2022-07-17T01:46:00,75s,1.31
2022-07-17T01:47:00,75s,1.31
2022-07-17T01:48:00,75s,1.31
2022-07-17T01:49:00,75s,1.62
2022-07-17T01:50:00,75s,1.22
2022-07-17T01:51:00,75s,1.46
2022-07-17T01:52:00,75s,1.90
2022-07-17T01:53:00,75s,1.52
2022-07-17T01:54:00,75s,1.52
2022-07-17T01:55:00,75s,1.57
2022-07-17T01:56:00,75s,1.55
2022-07-17T01:57:00,75s,1.55
2022-07-17T01:58:00,75s,1.54
2022-07-17T01:59:00,75s,1.44
2022-07-17T02:00:00,75s,1.52
2022-07-17T02:01:00,75s,1.59
2022-07-17T02:02:00,75s,1.51
2022-07-17T02:03:00,75s,1.51
2022-07-17T02:04:00,75s,1.51
2022-07-17T02:05:00,75s,1.53
2022-07-17T02:06:00,75s,1.63
2022-07-17T02:07:00,75s,1.35
2022-07-17T02:08:00,75s,1.35
2022-07-17T02:09:00,75s,1.25
2022-07-17T02:10:00,75s,1.25
2022-07-17T02:11:00,75s,1.25
2022-07-17T02:12:00,75s,1.27
2022-07-17T02:13:00,75s,1.25
2022-07-17T02:14:00,75s,1.25
2022-07-17T02:15:00,75s,1.62
2022-07-17T02:16:00,75s,1.29
2022-07-17T02:17:00,75s,1.27
2022-07-17T02:18:00,75s,1.27
2022-07-17T02:19:00,75s,1.17
2022-07-17T02:20:00,75s,1.76
2022-07-17T02:21:00,75s,1.25
2022-07-17T02:22:00,75s,1.25
2022-07-17T02:23:00,75s,1.54
2022-07-17T02:24:00,75s,1.17
2022-07-17T02:25:00,75s,1.65
2022-07-17T02:26:00,75s,1.43
2022-07-17T02:27:00,75s,1.42
2022-07-17T02:28:00,75s,1.33
2022-07-17T02:29:00,75s,1.24
2022-07-17T02:30:00,75s,1.31
2022-07-17T02:31:00,75s,1.30
2022-07-17T02:32:00,75s,1.29
2022-07-17T02:33:00,75s,1.29
2022-07-17T02:34:00,75s,1.30
2022-07-17T02:35:00,75s,1.39
2022-07-17T02:36:00,75s,1.40
2022-07-17T02:37:00,75s,1.62
2022-07-17T02:38:00,75s,1.64
2022-07-17T02:39:00,75s,1.54
2022-07-17T02:40:00,75s,1.39
2022-07-17T02:41:00,75s,1.38
2022-07-17T02:42:00,75s,1.38
2022-07-17T02:43:00,75s,1.37
2022-07-17T02:44:00,75s,1.38
2022-07-17T02:45:00,75s,1.49
2022-07-17T02:46:00,75s,1.47
2022-07-17T02:47:00,75s,1.46
2022-07-17T02:48:00,75s,1.46
2022-07-17T02:49:00,75s,1.82
2022-07-17T02:50:00,75s,1.43
2022-07-17T02:51:00,75s,1.45
2022-07-17T02:52:00,75s,1.84
2022-07-17T02:53:00,75s,1.35
2022-07-17T02:54:00,75s,1.36
2022-07-17T02:55:00,75s,1.45
2022-07-17T02:56:00,75s,1.46
2022-07-17T02:57:00,75s,1.46
2022-07-17T02:58:00,75s,1.37
2022-07-17T02:59:00,75s,1.27
2022-07-17T03:00:00,75s,1.34
2022-07-17T03:01:00,75s,1.35
2022-07-17T03:02:00,75s,1.34
2022-07-17T03:03:00,75s,1.35
2022-07-17T03:04:00,75s,1.56
2022-07-17T03:05:00,75s,1.44
2022-07-17T03:06:00,75s,1.37
2022-07-17T03:07:00,75s,1.36
2022-07-17T03:08:00,75s,1.36
2022-07-17T03:09:00,75s,1.26
2022-07-17T03:10:00,75s,1.26
2022-07-17T03:11:00,75s,1.34
2022-07-17T03:12:00,75s,1.35
2022-07-17T03:13:00,75s,1.35
2022-07-17T03:14:00,75s,1.27
2022-07-17T03:15:00,75s,1.44
2022-07-17T03:16:00,75s,2.06
2022-07-17T03:17:00,75s,1.71
2022-07-17T03:18:00,75s,1.63
2022-07-17T03:19:00,75s,1.52
2022-07-17T03:20:00,75s,1.53
2022-07-17T03:21:00,75s,1.53
2022-07-17T03:22:00,75s,1.90
2022-07-17T03:23:00,75s,1.62
2022-07-17T03:24:00,75s,1.61
2022-07-17T03:25:00,75s,1.71
2022-07-17T03:26:00,75s,1.71
2022-07-17T03:27:00,75s,1.74
2022-07-17T03:28:00,75s,1.74
2022-07-17T03:29:00,75s,1.64
2022-07-17T03:30:00,75s,1.58
2022-07-17T03:31:00,75s,1.56
2022-07-17T03:32:00,75s,1.58
2022-07-17T03:33:00,75s,1.58
2022-07-17T03:34:00,75s,1.27
2022-07-17T03:35:00,75s,1.36
2022-07-17T03:36:00,75s,1.37
2022-07-17T03:37:00,75s,1.36
2022-07-17T03:38:00,75s,1.44
2022-07-17T03:39:00,75s,1.45
2022-07-17T03:40:00,75s,1.42
2022-07-17T03:41:00,75s,1.32
2022-07-17T03:42:00,75s,1.32
2022-07-17T03:43:00,75s,1.31
2022-07-17T03:44:00,75s,1.24
2022-07-17T03:45:00,75s,1.35
2022-07-17T03:46:00,75s,1.33
2022-07-17T03:47:00,75s,1.32
2022-07-17T03:48:00,75s,1.33
2022-07-17T03:49:00,75s,1.23
2022-07-17T03:50:00,75s,1.31
2022-07-17T03:51:00,75s,1.32
2022-07-17T03:52:00,75s,1.32
2022-07-17T03:53:00,75s,1.20
2022-07-17T03:54:00,75s,1.21
2022-07-17T03:55:00,75s,1.58
2022-07-17T03:56:00,75s,1.33
2022-07-17T03:57:00,75s,1.38
2022-07-17T03:58:00,75s,1.37
2022-07-17T03:59:00,75s,1.28
2022-07-17T04:00:00,75s,1.28
2022-07-17T04:01:00,75s,1.39
2022-07-17T04:02:00,75s,1.81
2022-07-17T04:03:00,75s,1.33
2022-07-17T04:04:00,75s,1.40
2022-07-17T04:05:00,75s,1.35
2022-07-17T04:06:00,75s,1.34
2022-07-17T04:07:00,75s,1.34
2022-07-17T04:08:00,75s,1.43
2022-07-17T04:09:00,75s,1.33
2022-07-17T04:10:00,75s,1.32
2022-07-17T04:11:00,75s,1.32
2022-07-17T04:12:00,75s,1.32
2022-07-17T04:13:00,75s,1.32
2022-07-17T04:14:00,75s,1.39
2022-07-17T04:15:00,75s,1.50
2022-07-17T04:16:00,75s,1.57
2022-07-17T04:17:00,75s,1.49
2022-07-17T04:18:00,75s,1.41
2022-07-17T04:19:00,75s,1.27
2022-07-17T04:20:00,75s,1.27
2022-07-17T04:21:00,75s,1.26
2022-07-17T04:22:00,75s,1.60
2022-07-17T04:23:00,75s,1.26
2022-07-17T04:24:00,75s,1.27
2022-07-17T04:25:00,75s,1.36
2022-07-17T04:26:00,75s,1.37
2022-07-17T04:27:00,75s,1.43
2022-07-17T04:28:00,75s,1.51
2022-07-17T04:29:00,75s,1.45
2022-07-17T04:30:00,75s,1.77
2022-07-17T04:31:00,75s,1.28
2022-07-17T04:32:00,75s,1.25
2022-07-17T04:33:00,75s,1.33
2022-07-17T04:34:00,75s,1.32
2022-07-17T04:35:00,75s,1.42
2022-07-17T04:36:00,75s,1.35
2022-07-17T04:37:00,75s,1.34
2022-07-17T04:38:00,75s,1.42
2022-07-17T04:39:00,75s,1.31
2022-07-17T04:40:00,75s,1.32
2022-07-17T04:41:00,75s,1.25
2022-07-17T04:42:00,75s,1.24
2022-07-17T04:43:00,75s,1.24
2022-07-17T04:44:00,75s,1.37
2022-07-17T04:45:00,75s,1.36
2022-07-17T04:46:00,75s,1.35
2022-07-17T04:47:00,75s,1.43
2022-07-17T04:48:00,75s,1.41
2022-07-17T04:49:00,75s,1.41
2022-07-17T04:50:00,75s,1.36
2022-07-17T04:51:00,75s,1.36
2022-07-17T04:52:00,75s,1.30
2022-07-17T04:53:00,75s,1.29
2022-07-17T04:54:00,75s,1.38
2022-07-17T04:55:00,75s,1.47
2022-07-17T04:56:00,75s,1.45
2022-07-17T04:57:00,75s,1.47
2022-07-17T04:58:00,75s,1.44
2022-07-17T04:59:00,75s,1.41
2022-07-17T05:00:00,75s,1.41
2022-07-17T05:01:00,75s,1.48
2022-07-17T05:02:00,75s,1.41
2022-07-17T05:03:00,75s,1.33
2022-07-17T05:04:00,75s,1.33
2022-07-17T05:05:00,75s,1.42
2022-07-17T05:06:00,75s,1.43
2022-07-17T05:07:00,75s,1.43
2022-07-17T05:08:00,75s,1.39
2022-07-17T05:09:00,75s,1.29
2022-07-17T05:10:00,75s,1.29
2022-07-17T05:11:00,75s,1.36
2022-07-17T05:12:00,75s,1.45
2022-07-17T05:13:00,75s,1.46
2022-07-17T05:14:00,75s,1.36
2022-07-17T05:15:00,75s,1.31
2022-07-17T05:16:00,75s,1.32
2022-07-17T05:17:00,75s,10.53
2022-07-17T05:18:00,75s,10.46
2022-07-17T05:19:00,75s,10.26
2022-07-17T05:20:00,75s,10.23
2022-07-17T05:21:00,75s,10.15
2022-07-17T05:22:00,75s,1.27
2022-07-17T05:23:00,75s,1.28
2022-07-17T05:24:00,75s,1.36
2022-07-17T05:25:00,75s,1.38
2022-07-17T05:26:00,75s,1.39
2022-07-17T05:27:00,75s,1.27
2022-07-17T05:28:00,75s,1.27
2022-07-17T05:29:00,75s,1.17
2022-07-17T05:30:00,75s,1.16
2022-07-17T05:31:00,75s,1.16
2022-07-17T05:32:00,75s,1.17
2022-07-17T05:33:00,75s,1.17
2022-07-17T05:34:00,75s,1.25
2022-07-17T05:35:00,75s,1.45
2022-07-17T05:36:00,75s,1.43
2022-07-17T05:37:00,75s,1.35
2022-07-17T05:38:00,75s,1.27
2022-07-17T05:39:00,75s,1.24
2022-07-17T05:40:00,75s,1.55
2022-07-17T05:41:00,75s,1.30
2022-07-17T05:42:00,75s,1.30
2022-07-17T05:43:00,75s,1.30
2022-07-17T05:44:00,75s,1.30
2022-07-17T05:45:00,75s,1.49
2022-07-17T05:46:00,75s,1.48
2022-07-17T05:47:00,75s,1.55
2022-07-17T05:48:00,75s,1.47
2022-07-17T05:49:00,75s,1.37
2022-07-17T05:50:00,75s,1.66
2022-07-17T05:51:00,75s,1.30
2022-07-17T05:52:00,75s,1.30
2022-07-17T05:53:00,75s,1.30
2022-07-17T05:54:00,75s,1.73
2022-07-17T05:55:00,75s,1.39
2022-07-17T05:56:00,75s,1.41
2022-07-17T05:57:00,75s,1.48
2022-07-17T05:58:00,75s,1.50
2022-07-17T05:59:00,75s,1.33
2022-07-17T06:00:00,75s,1.32
2022-07-17T06:01:00,75s,2.36
2022-07-17T06:02:00,75s,2.69
2022-07-17T06:03:00,75s,3.25
2022-07-17T06:04:00,75s,3.06
2022-07-17T06:05:00,75s,3.12
2022-07-17T06:06:00,75s,13.76
2022-07-17T06:07:00,75s,13.61
2022-07-17T06:08:00,75s,13.94
2022-07-17T06:09:00,75s,13.63
2022-07-17T06:10:00,75s,13.64
2022-07-17T06:11:00,75s,13.57
2022-07-17T06:12:00,75s,13.84
2022-07-17T06:13:00,75s,13.50
2022-07-17T06:14:00,75s,13.52
2022-07-17T06:15:00,75s,13.65
2022-07-17T06:16:00,75s,24.76
2022-07-17T06:17:00,75s,19.52
2022-07-17T06:18:00,75s,19.50
2022-07-17T06:19:00,75s,19.41
2022-07-17T06:20:00,75s,19.60
2022-07-17T06:21:00,75s,19.94
2022-07-17T06:22:00,75s,13.62
2022-07-17T06:23:00,75s,13.50
2022-07-17T06:24:00,75s,13.56
2022-07-17T06:25:00,75s,14.01
2022-07-17T06:26:00,75s,13.99
2022-07-17T06:27:00,75s,14.00
2022-07-17T06:28:00,75s,14.05
2022-07-17T06:29:00,75s,13.95
2022-07-17T06:30:00,75s,14.03
2022-07-17T06:31:00,75s,14.23
2022-07-17T06:32:00,75s,3.68
2022-07-17T06:33:00,75s,3.58
2022-07-17T06:34:00,75s,3.67
2022-07-17T06:35:00,75s,3.81
2022-07-17T06:36:00,75s,3.81
2022-07-17T06:37:00,75s,3.64
2022-07-17T06:38:00,75s,3.62
2022-07-17T06:39:00,75s,3.52
2022-07-17T06:40:00,75s,14.05
2022-07-17T06:41:00,75s,14.15
2022-07-17T06:42:00,75s,14.22
2022-07-17T06:43:00,75s,14.27
2022-07-17T06:44:00,75s,14.19
2022-07-17T06:45:00,75s,14.19
2022-07-17T06:46:00,75s,14.12
2022-07-17T06:47:00,75s,14.51
2022-07-17T06:48:00,75s,14.21
2022-07-17T06:49:00,75s,14.10
2022-07-17T06:50:00,75s,22.91
2022-07-17T06:51:00,75s,26.62
2022-07-17T06:52:00,75s,20.05
2022-07-17T06:53:00,75s,19.99
2022-07-17T06:54:00,75s,20.06
2022-07-17T06:55:00,75s,25.36
2022-07-17T06:56:00,75s,21.56
2022-07-17T06:57:00,75s,23.00
2022-07-17T06:58:00,75s,25.13
2022-07-17T06:59:00,75s,26.06
2022-07-17T07:00:00,75s,26.41
2022-07-17T07:01:00,75s,25.47
2022-07-17T07:02:00,75s,25.55
2022-07-17T07:03:00,75s,25.46
2022-07-17T07:04:00,75s,25.26
2022-07-17T07:05:00,75s,24.86
2022-07-17T07:06:00,75s,24.92
2022-07-17T07:07:00,75s,24.67
2022-07-17T07:08:00,75s,20.58
2022-07-17T07:09:00,75s,22.50
2022-07-17T07:10:00,75s,20.04
2022-07-17T07:11:00,75s,20.03
2022-07-17T07:12:00,75s,20.11
2022-07-17T07:13:00,75s,20.05
2022-07-17T07:14:00,75s,20.09
2022-07-17T07:15:00,75s,20.16
2022-07-17T07:16:00,75s,20.23
2022-07-17T07:17:00,75s,20.30
2022-07-17T07:18:00,75s,20.16
2022-07-17T07:19:00,75s,20.12
2022-07-17T07:20:00,75s,20.12
2022-07-17T07:21:00,75s,20.22
2022-07-17T07:22:00,75s,20.19
2022-07-17T07:23:00,75s,20.54
2022-07-17T07:24:00,75s,20.24
2022-07-17T07:25:00,75s,20.42
2022-07-17T07:26:00,75s,20.44
2022-07-17T07:27:00,75s,20.47
2022-07-17T07:28:00,75s,20.53
2022-07-17T07:29:00,75s,20.34
2022-07-17T07:30:00,75s,20.21
2022-07-17T07:31:00,75s,20.13
2022-07-17T07:32:00,75s,20.14
2022-07-17T07:33:00,75s,20.20
2022-07-17T07:34:00,75s,20.20
2022-07-17T07:35:00,75s,20.29
2022-07-17T07:36:00,75s,20.21
2022-07-17T07:37:00,75s,20.84
2022-07-17T07:38:00,75s,20.31
2022-07-17T07:39:00,75s,20.17
2022-07-17T07:40:00,75s,20.16
2022-07-17T07:41:00,75s,20.17
2022-07-17T07:42:00,75s,20.20
2022-07-17T07:43:00,75s,20.20
2022-07-17T07:44:00,75s,20.07
2022-07-17T07:45:00,75s,20.37
2022-07-17T07:46:00,75s,22.10
2022-07-17T07:47:00,75s,20.13
2022-07-17T07:48:00,75s,25.18
2022-07-17T07:49:00,75s,21.20
2022-07-17T07:50:00,75s,22.44
2022-07-17T07:51:00,75s,25.97
2022-07-17T07:52:00,75s,25.81
2022-07-17T07:53:00,75s,25.91
2022-07-17T07:54:00,75s,25.94
2022-07-17T07:55:00,75s,25.80
2022-07-17T07:56:00,75s,25.83
2022-07-17T07:57:00,75s,25.59
2022-07-17T07:58:00,75s,25.20
2022-07-17T07:59:00,75s,24.98
2022-07-17T08:00:00,75s,24.90
2022-07-17T08:01:00,75s,25.30
2022-07-17T08:02:00,75s,22.49
2022-07-17T08:03:00,75s,24.65
2022-07-17T08:04:00,75s,23.37
2022-07-17T08:05:00,75s,21.82
2022-07-17T08:06:00,75s,20.36
2022-07-17T08:07:00,75s,20.37
2022-07-17T08:08:00,75s,20.32
2022-07-17T08:09:00,75s,20.12
2022-07-17T08:10:00,75s,20.12
2022-07-17T08:11:00,75s,20.19
2022-07-17T08:12:00,75s,20.23
2022-07-17T08:13:00,75s,20.23
2022-07-17T08:14:00,75s,20.29
2022-07-17T08:15:00,75s,20.16
2022-07-17T08:16:00,75s,20.30
2022-07-17T08:17:00,75s,20.38
2022-07-17T08:18:00,75s,20.35
2022-07-17T08:19:00,75s,20.24
2022-07-17T08:20:00,75s,20.17
2022-07-17T08:21:00,75s,20.17
2022-07-17T08:22:00,75s,20.11
2022-07-17T08:23:00,75s,20.09
2022-07-17T08:24:00,75s,20.09
2022-07-17T08:25:00,75s,20.61
2022-07-17T08:26:00,75s,20.28
2022-07-17T08:27:00,75s,20.03
2022-07-17T08:28:00,75s,20.03
2022-07-17T08:29:00,75s,19.89
2022-07-17T08:30:00,75s,19.94
2022-07-17T08:31:00,75s,19.98
2022-07-17T08:32:00,75s,19.78
2022-07-17T08:33:00,75s,19.76
2022-07-17T08:34:00,75s,19.86
2022-07-17T08:35:00,75s,20.05
2022-07-17T08:36:00,75s,20.23
2022-07-17T08:37:00,75s,20.23
2022-07-17T08:38:00,75s,20.18
2022-07-17T08:39:00,75s,20.69
2022-07-17T08:40:00,75s,22.32
2022-07-17T08:41:00,75s,23.99
2022-07-17T08:42:00,75s,20.42
2022-07-17T08:43:00,75s,25.69
2022-07-17T08:44:00,75s,25.34
2022-07-17T08:45:00,75s,25.17
2022-07-17T08:46:00,75s,25.18
2022-07-17T08:47:00,75s,24.98
2022-07-17T08:48:00,75s,24.66
2022-07-17T08:49:00,75s,23.43
2022-07-17T08:50:00,75s,22.28
2022-07-17T08:51:00,75s,21.32
2022-07-17T08:52:00,75s,23.33
2022-07-17T08:53:00,75s,19.68
2022-07-17T08:54:00,75s,21.75
2022-07-17T08:55:00,75s,21.07
2022-07-17T08:56:00,75s,21.03
2022-07-17T08:57:00,75s,20.73
2022-07-17T08:58:00,75s,21.74
2022-07-17T08:59:00,75s,19.65
2022-07-17T09:00:00,75s,19.74
2022-07-17T09:01:00,75s,19.83
2022-07-17T09:02:00,75s,19.86
2022-07-17T09:03:00,75s,20.04
2022-07-17T09:04:00,75s,19.78
2022-07-17T09:05:00,75s,19.87
2022-07-17T09:06:00,75s,20.13
2022-07-17T09:07:00,75s,20.26
2022-07-17T09:08:00,75s,24.50
2022-07-17T09:09:00,75s,20.07
2022-07-17T09:10:00,75s,24.19
2022-07-17T09:11:00,75s,23.50
2022-07-17T09:12:00,75s,23.36
2022-07-17T09:13:00,75s,23.29
2022-07-17T09:14:00,75s,20.50
2022-07-17T09:15:00,75s,20.10
2022-07-17T09:16:00,75s,20.26
2022-07-17T09:17:00,75s,20.43
2022-07-17T09:18:00,75s,20.50
2022-07-17T09:19:00,75s,20.30
2022-07-17T09:20:00,75s,20.27
2022-07-17T09:21:00,75s,20.32
2022-07-17T09:22:00,75s,20.50
2022-07-17T09:23:00,75s,20.25
2022-07-17T09:24:00,75s,20.37
2022-07-17T09:25:00,75s,20.45
2022-07-17T09:26:00,75s,20.36
2022-07-17T09:27:00,75s,20.77
2022-07-17T09:28:00,75s,20.99
2022-07-17T09:29:00,75s,20.92
2022-07-17T09:30:00,75s,20.51
2022-07-17T09:31:00,75s,22.67
2022-07-17T09:32:00,75s,20.55
2022-07-17T09:33:00,75s,22.19
2022-07-17T09:34:00,75s,24.22
2022-07-17T09:35:00,75s,25.78
2022-07-17T09:36:00,75s,26.51
2022-07-17T09:37:00,75s,26.39
2022-07-17T09:38:00,75s,24.59
2022-07-17T09:39:00,75s,26.04
2022-07-17T09:40:00,75s,26.34
2022-07-17T09:41:00,75s,26.36
2022-07-17T09:42:00,75s,26.35
2022-07-17T09:43:00,75s,26.36
2022-07-17T09:44:00,75s,26.30
2022-07-17T09:45:00,75s,26.09
2022-07-17T09:46:00,75s,26.38
2022-07-17T09:47:00,75s,26.37
2022-07-17T09:48:00,75s,26.47
2022-07-17T09:49:00,75s,26.38
2022-07-17T09:50:00,75s,26.45
2022-07-17T09:51:00,75s,26.87
2022-07-17T09:52:00,75s,26.83
2022-07-17T09:53:00,75s,26.83
2022-07-17T09:54:00,75s,26.86
2022-07-17T09:55:00,75s,26.76
2022-07-17T09:56:00,75s,26.96
2022-07-17T09:57:00,75s,26.93
2022-07-17T09:58:00,75s,26.93
2022-07-17T09:59:00,75s,27.47
2022-07-17T10:00:00,75s,27.14
2022-07-17T10:01:00,75s,27.21
2022-07-17T10:02:00,75s,27.14
2022-07-17T10:03:00,75s,27.33
2022-07-17T10:04:00,75s,27.56
2022-07-17T10:05:00,75s,27.85
2022-07-17T10:06:00,75s,27.95
2022-07-17T10:07:00,75s,28.04
2022-07-17T10:08:00,75s,28.13
2022-07-17T10:09:00,75s,27.99
2022-07-17T10:10:00,75s,27.97
2022-07-17T10:11:00,75s,27.78
2022-07-17T10:12:00,75s,27.75
2022-07-17T10:13:00,75s,27.56
2022-07-17T10:14:00,75s,27.61
2022-07-17T10:15:00,75s,27.70
2022-07-17T10:16:00,75s,28.06
2022-07-17T10:17:00,75s,28.29
2022-07-17T10:18:00,75s,27.64
2022-07-17T10:19:00,75s,27.39
2022-07-17T10:20:00,75s,27.73
2022-07-17T10:21:00,75s,22.29
2022-07-17T10:22:00,75s,20.71
2022-07-17T10:23:00,75s,20.60
2022-07-17T10:24:00,75s,29.36
2022-07-17T10:25:00,75s,32.41
2022-07-17T10:26:00,75s,30.47
2022-07-17T10:27:00,75s,32.28
2022-07-17T10:28:00,75s,34.56
2022-07-17T10:29:00,75s,27.52
2022-07-17T10:30:00,75s,27.61
2022-07-17T10:31:00,75s,27.23
2022-07-17T10:32:00,75s,27.18
2022-07-17T10:33:00,75s,27.33
2022-07-17T10:34:00,75s,27.21
2022-07-17T10:35:00,75s,27.02
2022-07-17T10:36:00,75s,26.82
2022-07-17T10:37:00,75s,26.94
2022-07-17T10:38:00,75s,26.97
2022-07-17T10:39:00,75s,26.65
2022-07-17T10:40:00,75s,26.99
2022-07-17T10:41:00,75s,26.86
2022-07-17T10:42:00,75s,27.39
2022-07-17T10:43:00,75s,26.85
2022-07-17T10:44:00,75s,26.82
2022-07-17T10:45:00,75s,27.30
2022-07-17T10:46:00,75s,27.36
2022-07-17T10:47:00,75s,27.17
2022-07-17T10:48:00,75s,27.17
2022-07-17T10:49:00,75s,27.15
2022-07-17T10:50:00,75s,27.09
2022-07-17T10:51:00,75s,27.19
2022-07-17T10:52:00,75s,27.09
2022-07-17T10:53:00,75s,27.29
2022-07-17T10:54:00,75s,27.29
2022-07-17T10:55:00,75s,27.24
2022-07-17T10:56:00,75s,27.44
2022-07-17T10:57:00,75s,27.50
2022-07-17T10:58:00,75s,27.43
2022-07-17T10:59:00,75s,27.33
2022-07-17T11:00:00,75s,26.90
2022-07-17T11:01:00,75s,27.27
2022-07-17T11:02:00,75s,26.71
2022-07-17T11:03:00,75s,26.68
2022-07-17T11:04:00,75s,22.98
2022-07-17T11:05:00,75s,20.79
2022-07-17T11:06:00,75s,20.58
2022-07-17T11:07:00,75s,20.57
2022-07-17T11:08:00,75s,20.65
2022-07-17T11:09:00,75s,20.49
2022-07-17T11:10:00,75s,20.28
2022-07-17T11:11:00,75s,20.13
2022-07-17T11:12:00,75s,20.16
2022-07-17T11:13:00,75s,19.98
2022-07-17T11:14:00,75s,20.15
2022-07-17T11:15:00,75s,20.19
2022-07-17T11:16:00,75s,20.47
2022-07-17T11:17:00,75s,20.41
2022-07-17T11:18:00,75s,20.33
2022-07-17T11:19:00,75s,20.63
2022-07-17T11:20:00,75s,21.92
2022-07-17T11:21:00,75s,23.49
2022-07-17T11:22:00,75s,24.96
2022-07-17T11:23:00,75s,25.81
2022-07-17T11:24:00,75s,25.87
2022-07-17T11:25:00,75s,25.73
2022-07-17T11:26:00,75s,25.76
2022-07-17T11:27:00,75s,25.96
2022-07-17T11:28:00,75s,25.93
2022-07-17T11:29:00,75s,25.85
2022-07-17T11:30:00,75s,25.88
2022-07-17T11:31:00,75s,26.15
2022-07-17T11:32:00,75s,26.26
2022-07-17T11:33:00,75s,26.03
2022-07-17T11:34:00,75s,25.73
2022-07-17T11:35:00,75s,25.79
2022-07-17T11:36:00,75s,26.22
2022-07-17T11:37:00,75s,26.21
2022-07-17T11:38:00,75s,26.06
2022-07-17T11:39:00,75s,26.01
2022-07-17T11:40:00,75s,25.82
2022-07-17T11:41:00,75s,25.83
2022-07-17T11:42:00,75s,26.06
2022-07-17T11:43:00,75s,25.91
2022-07-17T11:44:00,75s,25.95
2022-07-17T11:45:00,75s,25.86
2022-07-17T11:46:00,75s,26.04
2022-07-17T11:47:00,75s,25.93
2022-07-17T11:48:00,75s,25.68
2022-07-17T11:49:00,75s,24.01
2022-07-17T11:50:00,75s,20.56
2022-07-17T11:51:00,75s,19.73
2022-07-17T11:52:00,75s,19.62
2022-07-17T11:53:00,75s,19.62
2022-07-17T11:54:00,75s,19.68
2022-07-17T11:55:00,75s,19.79
2022-07-17T11:56:00,75s,19.75
2022-07-17T11:57:00,75s,19.87
2022-07-17T11:58:00,75s,19.68
2022-07-17T11:59:00,75s,19.59
2022-07-17T12:00:00,75s,19.48
2022-07-17T12:01:00,75s,19.54
2022-07-17T12:02:00,75s,19.73
2022-07-17T12:03:00,75s,19.61
2022-07-17T12:04:00,75s,19.26
2022-07-17T12:05:00,75s,13.70
2022-07-17T12:06:00,75s,14.13
2022-07-17T12:07:00,75s,13.86
2022-07-17T12:08:00,75s,13.91
2022-07-17T12:09:00,75s,13.95
2022-07-17T12:10:00,75s,13.96
2022-07-17T12:11:00,75s,14.04
2022-07-17T12:12:00,75s,14.21
2022-07-17T12:13:00,75s,14.31
2022-07-17T12:14:00,75s,14.66
2022-07-17T12:15:00,75s,14.27
2022-07-17T12:16:00,75s,14.19
2022-07-17T12:17:00,75s,14.24
2022-07-17T12:18:00,75s,14.11
2022-07-17T12:19:00,75s,14.09
2022-07-17T12:20:00,75s,2.74
2022-07-17T12:21:00,75s,2.75
2022-07-17T12:22:00,75s,2.74
2022-07-17T12:23:00,75s,2.77
2022-07-17T12:24:00,75s,2.85
2022-07-17T12:25:00,75s,2.87
2022-07-17T12:26:00,75s,3.04
2022-07-17T12:27:00,75s,3.16
2022-07-17T12:28:00,75s,3.14
2022-07-17T12:29:00,75s,3.05
2022-07-17T12:30:00,75s,14.62
2022-07-17T12:31:00,75s,14.82
2022-07-17T12:32:00,75s,14.84
2022-07-17T12:33:00,75s,14.76
2022-07-17T12:34:00,75s,14.48
2022-07-17T12:35:00,75s,14.63
2022-07-17T12:36:00,75s,14.83
2022-07-17T12:37:00,75s,15.01
2022-07-17T12:38:00,75s,14.82
2022-07-17T12:39:00,75s,14.54
2022-07-17T12:40:00,75s,27.14
2022-07-17T12:41:00,75s,27.95
2022-07-17T12:42:00,75s,27.47
2022-07-17T12:43:00,75s,27.32
2022-07-17T12:44:00,75s,27.10
2022-07-17T12:45:00,75s,26.85
2022-07-17T12:46:00,75s,26.57
2022-07-17T12:47:00,75s,21.63
2022-07-17T12:48:00,75s,20.24
2022-07-17T12:49:00,75s,20.44
2022-07-17T12:50:00,75s,20.45
2022-07-17T12:51:00,75s,20.37
2022-07-17T12:52:00,75s,20.30
2022-07-17T12:53:00,75s,20.24
2022-07-17T12:54:00,75s,20.22
2022-07-17T12:55:00,75s,20.42
2022-07-17T12:56:00,75s,20.55
2022-07-17T12:57:00,75s,20.43
2022-07-17T12:58:00,75s,20.53
2022-07-17T12:59:00,75s,20.54
2022-07-17T13:00:00,75s,20.43
2022-07-17T13:01:00,75s,20.50
2022-07-17T13:02:00,75s,20.45
2022-07-17T13:03:00,75s,20.25
2022-07-17T13:04:00,75s,20.49
2022-07-17T13:05:00,75s,20.40
2022-07-17T13:06:00,75s,20.47
2022-07-17T13:07:00,75s,20.51
2022-07-17T13:08:00,75s,21.34
2022-07-17T13:09:00,75s,22.75
2022-07-17T13:10:00,75s,24.03
2022-07-17T13:11:00,75s,24.84
2022-07-17T13:12:00,75s,23.63
2022-07-17T13:13:00,75s,21.50
2022-07-17T13:14:00,75s,14.46
2022-07-17T13:15:00,75s,14.51
2022-07-17T13:16:00,75s,14.47
2022-07-17T13:17:00,75s,14.55
2022-07-17T13:18:00,75s,14.69
2022-07-17T13:19:00,75s,14.55
2022-07-17T13:20:00,75s,14.61
2022-07-17T13:21:00,75s,14.50
2022-07-17T13:22:00,75s,14.78
2022-07-17T13:23:00,75s,14.77
2022-07-17T13:24:00,75s,14.67
2022-07-17T13:25:00,75s,14.59
2022-07-17T13:26:00,75s,14.73
2022-07-17T13:27:00,75s,2.89
2022-07-17T13:28:00,75s,2.90
2022-07-17T13:29:00,75s,2.80
2022-07-17T13:30:00,75s,2.80